Showing default

NUSAT-26 (M SOMERVILLE), 52184

Orbit data source: Space-Track

NUSAT-26 (M SOMERVILLE), 52184 is a payload satellite owned by URUGUS S.A. (AR) in SSO that was launched on Fri, 01 Apr 2022 UTC via an FALCON 9 launch vehicle from the Air Force Eastern Test Range (AFETR). Payload-class satellites include a variety of spacecraft equipped with specific instruments for various scientific and technological missions. These include communications satellites like Starlink; space stations such as the ISS; scientific satellites like the Hubble; Earth observation satellites from companies like Planet Labs, Umbra, and HawkEye 360; GPS; miniature CubeSats for education and research; and military/defense satellites.

Loading next visibility...
Identifier
52184, 2022-033AD
Orbit
SSO
Country
Flag of UnknownUnknown / ARGN
Related business
Manufacturer
URUGUS S.A.
Mission
Operational Commercial Imaging
Bus & Motor
NEWSAT IV, Unknown motor
Mass
41.5 kg wet, 38.5 kg dry
Launch date (UTC)
2022-04-01 (4 years ago)
Launch vehicle
FALCON 9
Launch site
Air Force Eastern Test Range (AFETR)
Object type
Payload
Rocket body
Debris
Shape & HBR
Box, 1.0 m
Radar Cross Section
0.542 m², Medium (>0.1 m² and < 1m²)

Expand to show TLE details & history
Last TLE update: 7 hours ago

TLE from 7 hours ago
0 NUSAT-26 (M SOMERVILLE)
1 52184U 22033AD  25352.26236411  .00012180  00000-0  36206-3 0  9994
2 52184  97.2559  68.5330 0006808 168.3597 191.7805 15.34873641 76887
Epoch: 2025-12-18T06:17Z
TLE epoch observation values (Epoch: 2025-12-18T06:17:48.259Z)
Latitude
-0.00003°
Longitude
-113.03847°
Altitude
468.97 km
Speed
7.629 km/s
True Right ascension
04h 34m 07s
True Declination
0° 00' 00"
Sunlit
Object was in full shadow at epoch
Visualization orbit readout
Latitude
Unknown
Longitude
Unknown
Altitude
Unknown
Speed
Unknown
Apparent Right ascension
Unknown
Apparent Declination
Unknown
Sunlit
N/A
Visualization observer readout
Local Sidereal Time
11:56:18
Azimuth
Unknown
Elevation
Unknown
Doppler factor
Unknown
Orbital elements
Apogee altitude
462.89 km
Perigee altitude
453.581 km
Semi-major axis
6,836.372 km
Eccentricity
0.00068
Inclination
97.2559°
RAAN
68.533°
Arg. of periapsis
168.3597°
True anomaly
191.76459°
Mean anomaly
191.7805°
Eccentric anomaly
191.77254°
Mean motion
3.83976 °/min
Orbital period
93.76 mins
BSTAR
0.00036206
Loading maneuver chart data...
Computing Atmospheric mass density...
Loading historical data...
Loading historical data...
Loading historical data...
Loading historical data...
Loading historical data...
Loading historical data...
Loading historical data...

Documentation

Showing up to 5 results
|